Location: Ferchesar
(52.6477°N, 12.4298°E)
Time: 17:40:36
(UTC+01:00)

SR - Visible Passes

Search period start: 26 February 2021 00:00
Search period end: 08 March 2021 00:00
Orbit: 573 x 882 km, 66.7° (Epoch: 25 February)

Date Brightness Start Highest point End Pass type
(mag) Time Alt. Az. Time Alt. Az. Time Alt. Az.
26 Feb ? 01:23:14 16° NE 01:23:14 16° NE 01:24:56 10° NE visible
26 Feb ? 03:02:39 26° N 03:04:31 31° NNE 03:09:46 10° E visible
26 Feb ? 04:42:03 13° NW 04:47:25 85° NE 04:53:21 10° SE visible
26 Feb ? 06:24:20 10° WNW 06:28:58 24° WSW 06:33:34 10° SSW visible
27 Feb ? 02:14:26 25° NNE 02:14:26 25° NNE 02:19:02 10° ENE visible
27 Feb ? 03:53:51 23° NNW 03:57:30 57° NE 04:03:20 10° ESE visible
27 Feb ? 05:34:04 10° NW 05:39:32 40° WSW 05:44:58 10° S visible
27 Feb ? 20:09:04 10° S 20:11:56 31° S 20:11:56 31° S visible
27 Feb ? 21:51:01 10° WSW 21:51:31 13° WSW 21:51:31 13° WSW visible
28 Feb ? 01:26:25 16° NE 01:26:25 16° NE 01:28:16 10° ENE visible
28 Feb ? 03:05:51 34° N 03:07:25 40° NE 03:13:00 10° ESE visible
28 Feb ? 04:45:17 17° NW 04:49:56 65° WSW 04:55:45 10° SSE visible
28 Feb ? 19:20:14 10° SSE 19:24:34 27° ESE 19:25:58 24° E visible
28 Feb ? 21:00:54 10° SW 21:05:31 63° W 21:05:31 63° W visible
28 Feb ? 22:44:38 10° W 22:45:06 12° WNW 22:45:06 12° WNW visible
01 Mar ? 02:18:09 29° NE 02:18:09 29° NE 02:22:25 10° E visible
01 Mar ? 03:57:37 36° NW 04:00:09 82° NE 04:06:05 10° SE visible
01 Mar ? 05:37:05 10° WNW 05:41:46 25° WSW 05:46:27 10° SSW visible
01 Mar ? 18:32:19 10° SE 18:35:19 15° ESE 18:38:25 10° ENE visible
01 Mar ? 20:11:09 10° SSW 20:16:23 74° SE 20:19:20 29° NE visible
01 Mar ? 21:54:03 10° W 21:58:53 35° NW 21:58:53 35° NW visible
02 Mar ? 01:30:52 13° ENE 01:30:52 13° ENE 01:31:40 10° ENE visible
02 Mar ? 03:10:22 55° NE 03:10:22 55° NE 03:16:02 10° ESE visible
02 Mar ? 04:49:53 29° WNW 04:52:18 42° WSW 04:57:47 10° S visible
02 Mar ? 19:21:49 10° S 19:26:47 44° ESE 19:32:08 10° NE visible
02 Mar ? 21:03:40 10° WSW 21:08:54 49° NW 21:12:14 23° NNE visible
02 Mar ? 22:47:56 10° WNW 22:51:45 23° NNW 22:51:45 23° NNW visible
03 Mar ? 02:23:40 20° E 02:23:40 20° E 02:25:40 10° ESE visible
03 Mar ? 04:03:13 64° SSW 04:03:13 64° SSW 04:08:31 10° SSE visible
03 Mar ? 05:42:46 15° W 05:43:49 16° WSW 05:47:07 10° SW visible
03 Mar ? 18:33:03 10° SSE 18:37:20 26° ESE 18:41:54 10° NE visible
03 Mar ? 20:13:35 10° SW 20:18:55 74° NW 20:24:42 10° NE visible
03 Mar ? 21:57:14 10° W 22:01:59 28° NNW 22:04:32 20° NNE visible
03 Mar ? 23:41:44 10° NW 23:44:00 17° NNW 23:44:00 17° NNW visible
04 Mar?01:37:26E01:37:26E01:23:28NWvisible
04 Mar ? 03:17:01 21° SE 03:17:01 21° SE 03:18:48 10° SE visible
04 Mar ? 04:56:35 22° SW 04:56:35 22° SW 04:59:19 10° SSW visible
04 Mar ? 19:23:52 10° SSW 19:29:07 70° SE 19:34:51 10° NE visible
04 Mar ? 21:06:40 10° W 21:11:43 36° NNW 21:16:52 11° NNE visible
04 Mar ? 22:51:13 10° NW 22:55:29 21° N 22:56:19 20° N visible
05 Mar ? 00:34:51 10° NW 00:35:46 14° NNW 00:35:46 14° NNW visible
05 Mar?02:31:03ESE02:31:03ESE02:15:12NWvisible
05 Mar ? 18:34:35 10° S 18:39:32 42° ESE 18:44:51 10° NE visible
05 Mar ? 20:16:19 10° WSW 20:21:35 51° NW 20:27:16 10° NE visible
05 Mar ? 22:00:33 10° WNW 22:05:02 23° NNW 22:08:20 15° NNE visible
05 Mar ? 23:44:44 10° NW 23:47:45 20° N 23:47:45 20° N visible
06 Mar ? 19:26:16 10° SW 19:31:38 78° NW 19:37:27 10° NE visible
06 Mar ? 21:09:52 10° W 21:14:39 28° NNW 21:19:42 10° NE visible
06 Mar ? 22:54:23 10° NW 22:58:37 20° N 22:59:34 20° NNE visible
07 Mar ? 00:37:30 10° NW 00:38:59 16° NNW 00:38:59 16° NNW visible
07 Mar ? 18:36:35 10° SSW 18:41:51 67° ESE 18:47:34 10° NE visible
07 Mar ? 20:19:18 10° W 20:24:24 37° NNW 20:29:50 10° NE visible
07 Mar ? 22:03:50 10° WNW 22:08:08 21° N 22:11:15 14° NNE visible
07 Mar ? 23:47:32 10° NW 23:50:40 21° N 23:50:40 21° N visible
